Boulder Muni, Boulder, CO, CO

7:45 AM MDT on October 17, 2019 (GMT -0600)
Boulder Muni, Boulder, CO

Weather History for KBDU - August, 2019

Change the Weather History Date:

Tuesday, August 27, 2019

  Actual Average Record
Temperature  
Mean Temperature 65 °F -  
Max Temperature 75 °F - 91 °F (2013)
Min Temperature 54 °F - 50 °F (2016)
Degree Days  
Heating Degree Days 0    
Month to date heating degree days 0  
Cooling Degree Days 0    
Month to date cooling degree days 259  
Growing Degree Days 14 (Base 50)    
Moisture  
Dew Point 44 °F    
Average Humidity 52    
Maximum Humidity 72    
Minimum Humidity 31    
Precipitation  
Precipitation 0.00 in - 0.03 in (2014)
Snow  
Snow 0.00 in - - ()
Snow Depth 0.00 in    
Sea Level Pressure  
Sea Level Pressure 30.22 in    
Wind  
Wind Speed 3 mph (NNE)    
Max Wind Speed 13 mph    
Max Gust Speed 16 mph    
Visibility 10 miles    
Events      
T = Trace of Precipitation, MM = Missing Value Source: NWS Daily Summary

Daily Weather History Graph

Daily Weather History Graph

Search for Another Location

Airport or City:

Astronomy

Aug. 27, 2019 Rise Set
Actual Time 6:23 AM MDT 7:40 PM MDT
Civil Twilight 5:55 AM MDT 8:08 PM MDT
Nautical Twilight 5:21 AM MDT 8:42 PM MDT
Astronomical Twilight 4:46 AM MDT 9:17 PM MDT
Moon 2:51 AM MDT (8/27) 6:03 PM MDT (8/27)
Length of Visible Light 14h 12m
Length of Day
13h 16m
Waning Crescent, 10% of the Moon is Illuminated
Aug 27
Waning Crescent
Aug 30
New
Sep 5
First Quarter
Sep 13
Full
Sep 21
Last Quarter

Hourly Weather History & Observations

Time (MDT) Temp. Dew Point Humidity Pressure Visibility Wind Dir Wind Speed Gust Speed Precip Events Conditions
12:12 AM 64.4 °F 46.4 °F 52% 30.20 in 10.0 mi Calm Calm - N/A   Overcast
12:30 AM 62.6 °F 46.4 °F 55% 30.20 in 10.0 mi WNW 3.5 mph - N/A   Overcast
12:48 AM 64.4 °F 46.4 °F 52% 30.20 in 10.0 mi WNW 4.6 mph - N/A   Overcast
1:12 AM 62.6 °F 46.4 °F 55% 30.20 in 10.0 mi NW 3.5 mph - N/A   Mostly Cloudy
1:30 AM 62.6 °F 46.4 °F 55% 30.19 in 10.0 mi NNW 3.5 mph - N/A   Mostly Cloudy
1:48 AM 60.8 °F 46.4 °F 59% 30.18 in 10.0 mi Calm Calm - N/A   Mostly Cloudy
2:12 AM 60.8 °F 46.4 °F 59% 30.18 in 10.0 mi Calm Calm - N/A   Scattered Clouds
2:30 AM 60.8 °F 46.4 °F 59% 30.18 in 10.0 mi North 3.5 mph - N/A   Clear
2:48 AM 59.0 °F 46.4 °F 63% 30.18 in 10.0 mi NW 3.5 mph - N/A   Clear
3:12 AM 59.0 °F 46.4 °F 63% 30.17 in 10.0 mi WNW 3.5 mph - N/A   Clear
3:31 AM 59.0 °F 44.6 °F 59% 30.17 in 10.0 mi NNW 3.5 mph - N/A   Clear
3:49 AM 59.0 °F 44.6 °F 59% 30.17 in 10.0 mi NNW 3.5 mph - N/A   Clear
4:12 AM 57.2 °F 44.6 °F 63% 30.18 in 10.0 mi North 3.5 mph - N/A   Clear
4:29 AM 55.4 °F 44.6 °F 67% 30.18 in 10.0 mi Calm Calm - N/A   Clear
4:53 AM 55.4 °F 44.6 °F 67% 30.18 in 10.0 mi Calm Calm - N/A   Clear
5:11 AM 57.2 °F 44.6 °F 63% 30.19 in 10.0 mi WNW 3.5 mph - N/A   Clear
5:28 AM 55.4 °F 46.4 °F 72% 30.19 in 10.0 mi Calm Calm - N/A   Clear
5:52 AM 57.2 °F 44.6 °F 63% 30.19 in 10.0 mi Calm Calm - N/A   Clear
6:12 AM 55.4 °F 46.4 °F 72% 30.20 in 10.0 mi Calm Calm - N/A   Clear
6:30 AM 53.6 °F 46.4 °F 77% 30.20 in 10.0 mi Calm Calm - N/A   Clear
6:48 AM 55.4 °F 46.4 °F 72% 30.21 in 10.0 mi Calm Calm - N/A   Clear
7:12 AM 55.4 °F 48.2 °F 77% 30.21 in 10.0 mi Calm Calm - N/A   Clear
7:30 AM 59.0 °F 44.6 °F 59% 30.22 in 10.0 mi Calm Calm - N/A   Clear
7:48 AM 59.0 °F 44.6 °F 59% 30.22 in 10.0 mi North 5.8 mph - N/A   Clear
8:12 AM 60.8 °F 44.6 °F 55% 30.24 in 10.0 mi North 8.1 mph - N/A   Clear
8:30 AM 60.8 °F 42.8 °F 52% 30.24 in 10.0 mi North 10.4 mph - N/A   Clear
8:48 AM 62.6 °F 42.8 °F 48% 30.25 in 10.0 mi North 12.7 mph - N/A   Clear
9:12 AM 62.6 °F 42.8 °F 48% 30.25 in 10.0 mi NNE 10.4 mph 16.1 mph N/A   Clear
9:30 AM 64.4 °F 42.8 °F 45% 30.26 in 10.0 mi NNE 10.4 mph - N/A   Clear
9:48 AM 64.4 °F 42.8 °F 45% 30.26 in 10.0 mi North 9.2 mph - N/A   Clear
10:12 AM 64.4 °F 42.8 °F 45% 30.26 in 10.0 mi NE 11.5 mph 16.1 mph N/A   Clear
10:30 AM 66.2 °F 42.8 °F 43% 30.27 in 10.0 mi North 9.2 mph - N/A   Clear
10:48 AM 66.2 °F 42.8 °F 43% 30.27 in 10.0 mi North 6.9 mph 16.1 mph N/A   Clear
11:12 AM 68.0 °F 42.8 °F 40% 30.27 in 10.0 mi NNE 6.9 mph - N/A   Clear
11:30 AM 68.0 °F 42.8 °F 40% 30.27 in 10.0 mi NNE 8.1 mph - N/A   Clear
11:48 AM 69.8 °F 41.0 °F 35% 30.26 in 10.0 mi ENE 9.2 mph - N/A   Clear
12:12 PM 69.8 °F 41.0 °F 35% 30.26 in 10.0 mi NNE 6.9 mph - N/A   Clear
12:30 PM 69.8 °F 42.8 °F 38% 30.25 in 10.0 mi NE 10.4 mph 16.1 mph N/A   Clear
12:48 PM 69.8 °F 42.8 °F 38% 30.24 in 10.0 mi NNE 4.6 mph 16.1 mph N/A   Clear
1:12 PM 71.6 °F 42.8 °F 35% 30.24 in 10.0 mi ENE 5.8 mph - N/A   Clear
1:30 PM 71.6 °F 42.8 °F 35% 30.24 in 10.0 mi East 6.9 mph - N/A   Clear
1:48 PM 71.6 °F 42.8 °F 35% 30.24 in 10.0 mi Calm Calm - N/A   Scattered Clouds
2:12 PM 73.4 °F 44.6 °F 36% 30.22 in 10.0 mi East 6.9 mph - N/A   Clear
2:30 PM 73.4 °F 42.8 °F 33% 30.22 in 10.0 mi NE 4.6 mph - N/A   Clear
2:53 PM 73.4 °F 42.8 °F 33% 30.22 in 10.0 mi ENE 5.8 mph - N/A   Clear
3:12 PM 73.4 °F 44.6 °F 36% 30.21 in 10.0 mi Calm Calm - N/A   Scattered Clouds
3:30 PM 73.4 °F 42.8 °F 33% 30.21 in 10.0 mi ENE 5.8 mph - N/A   Clear
3:48 PM 73.4 °F 42.8 °F 33% 30.21 in 10.0 mi ESE 4.6 mph - N/A   Clear
4:12 PM 73.4 °F 42.8 °F 33% 30.20 in 10.0 mi ESE 5.8 mph - N/A   Clear
4:30 PM 75.2 °F 44.6 °F 34% 30.20 in 10.0 mi East 4.6 mph - N/A   Clear
4:48 PM 75.2 °F 42.8 °F 31% 30.20 in 10.0 mi East 4.6 mph - N/A   Clear
5:12 PM 75.2 °F 44.6 °F 34% 30.20 in 10.0 mi East 5.8 mph - N/A   Clear
5:30 PM 73.4 °F 42.8 °F 33% 30.20 in 10.0 mi NE 4.6 mph - N/A   Clear
5:48 PM 75.2 °F 42.8 °F 31% 30.20 in 10.0 mi NE 4.6 mph - N/A   Clear
6:08 PM 73.4 °F 42.8 °F 33% 30.20 in 10.0 mi ENE 3.5 mph - N/A   Clear
6:32 PM 73.4 °F 42.8 °F 33% 30.19 in 10.0 mi NE 3.5 mph - N/A   Clear
6:50 PM 71.6 °F 42.8 °F 35% 30.20 in 10.0 mi Calm Calm - N/A   Clear
7:12 PM 71.6 °F 42.8 °F 35% 30.20 in 10.0 mi ENE 3.5 mph - N/A   Clear
7:30 PM 69.8 °F 44.6 °F 40% 30.20 in 10.0 mi Calm Calm - N/A   Clear
7:48 PM 68.0 °F 44.6 °F 43% 30.21 in 10.0 mi Calm Calm - N/A   Clear
8:12 PM 68.0 °F 44.6 °F 43% 30.21 in 10.0 mi ENE 4.6 mph - N/A   Clear
8:30 PM 68.0 °F 46.4 °F 46% 30.22 in 10.0 mi East 3.5 mph - N/A   Clear
8:48 PM 66.2 °F 46.4 °F 49% 30.23 in 10.0 mi East 3.5 mph - N/A   Clear
9:12 PM 64.4 °F 46.4 °F 52% 30.24 in 10.0 mi East 3.5 mph - N/A   Clear
9:30 PM 64.4 °F 46.4 °F 52% 30.25 in 10.0 mi Calm Calm - N/A   Clear
9:48 PM 62.6 °F 46.4 °F 55% 30.25 in 10.0 mi Calm Calm - N/A   Clear
10:12 PM 62.6 °F 46.4 °F 55% 30.25 in 10.0 mi Calm Calm - N/A   Clear
10:30 PM 60.8 °F 46.4 °F 59% 30.26 in 10.0 mi Calm Calm - N/A   Clear
10:48 PM 60.8 °F 46.4 °F 59% 30.26 in 10.0 mi Calm Calm - N/A   Clear
11:12 PM 59.0 °F 46.4 °F 63% 30.25 in 10.0 mi NNW 3.5 mph - N/A   Clear
11:30 PM 59.0 °F 46.4 °F 63% 30.25 in 10.0 mi Calm Calm - N/A   Clear
11:53 PM 59.0 °F 46.4 °F 63% 30.25 in 10.0 mi Calm Calm - N/A   Clear